Regional Weather Roundup
Issued by NWS Upton, NY

Current Version | Previous Version | Graphics & Text | Print | Product List | Glossary Off
Versions: 1 2 3 4 5 6 7 8 9 10 11 12 13 14 15 16 17 18 19 20 21 22 23 24 25 26 27 28 29 30 31 32 33 34 35 36 37 38 39 40 41 42 43 44 45 46 47 48 49 50

000
ASUS41 KOKX 041208
RWROKX

REGIONAL WEATHER ROUNDUP
NATIONAL WEATHER SERVICE NEW YORK NY
800 AM EDT MON MAY 04 2015

NOTE: "FAIR" INDICATES FEW OR NO CLOUDS BELOW 12,000 FEET WITH NO
SIGNIFICANT WEATHER AND/OR OBSTRUCTIONS TO VISIBILITY.

NYZ071-072-176-178-NJZ106-104-041300-
NEW YORK CITY METRO AREA


CITY           SKY/WX    TMP DP  RH WIND       PRES   REMARKS
CENTRAL PARK   SUNNY     62  48  60 CALM      30.24R
LAGUARDIA APRT MOSUNNY   56  48  74 NE5       30.21R
KENNEDY INTL   MOSUNNY   58  51  78 S5        30.23R
NEWARK/LIBERTY MOSUNNY   61  45  55 CALM      30.21R
BRNX BOT. GARD   N/A     59  48  67 CALM      30.24R
TETERBORO      SUNNY     60  46  59 S3        30.20R
$$

NYZ177-179-078>081-041300-
LONG ISLAND NEW YORK

CITY           SKY/WX    TMP DP  RH WIND       PRES   REMARKS
FARMINGDALE    SUNNY     57  52  83 SW3       30.22R
ISLIP          MOSUNNY   58  52  80 SW5       30.20S
SHIRLEY        SUNNY     57  53  86 S3        30.23R
WESTHAMPTON    SUNNY     56  52  86 SW6       30.24R
MONTAUK POINT    N/A     54  52  93 S5        30.24R
$$

NYZ052-065-067-041300-
HUDSON VALLEY

CITY           SKY/WX    TMP DP  RH WIND       PRES   REMARKS
WHITE PLAINS   SUNNY     54  48  80 E3        30.21R
NEWBURGH       SUNNY     57  46  67 CALM      30.20S
MONTGOMERY     MOSUNNY   54  46  74 CALM      30.19R
POUGHKEEPSIE   SUNNY     57  45  64 CALM      30.19R
ALBANY         MOSUNNY   61  41  47 S5        30.17R
$$

NJZ001-105-106-008-010-013-015-019>022-104-041300-
NEW JERSEY

CITY           SKY/WX    TMP DP  RH WIND       PRES   REMARKS
NEWARK/LIBERTY MOSUNNY   61  45  55 CALM      30.21R
TETERBORO      SUNNY     60  46  59 S3        30.20R
CALDWELL       SUNNY     56  46  69 CALM      30.22R
MORRISTOWN     SUNNY     55  46  71 CALM      30.22R
SOMERVILLE     SUNNY     54  46  74 CALM      30.20R
SUSSEX         SUNNY     53  44  71 CALM      30.21S
ANDOVER          N/A     57  47  69 CALM      30.21R
TRENTON        SUNNY     58  47  66 CALM      30.21R
MILLVILLE      SUNNY     61  54  77 CALM      30.23R
ATLANTIC CITY  SUNNY     62  51  67 VRB3      30.23R
WRIGHTSTOWN    SUNNY     60  49  66 SW2       30.20R
TOMS RIVER     SUNNY     61  50  67 CALM      30.21F
BELMAR         SUNNY     59  45  58 W6        30.22S
$$

PAZ047>061-062-071-041300-
EASTERN PENNSYLVANIA

CITY           SKY/WX    TMP DP  RH WIND       PRES   REMARKS
PHILADELPHIA   MOSUNNY   61  49  64 SW7       30.23R
ALLENTOWN      SUNNY     56  45  66 CALM      30.21R
SCRANTON       SUNNY     60  42  51 CALM      30.21R
$$

CTZ002-004>006-009-010-012-RIZ004-006-007-MAZ004-011-015-041300-
SOUTHERN NEW ENGLAND
 IN CT

CITY           SKY/WX    TMP DP  RH WIND       PRES   REMARKS
BRADLEY INTL   MOSUNNY   55  46  71 CALM      30.20R
HARTFORD       SUNNY     55  50  83 S5        30.21S
DANBURY        SUNNY     53  44  71 CALM      30.22S
WTRBRY/OXFORD  SUNNY     63  45  51 SW5       30.23S
BRIDGEPORT     SUNNY     54  51  90 E3        30.22R
MERIDEN        SUNNY     54  48  80 S6        30.21S
NEW HAVEN      MOSUNNY   54  52  93 CALM      30.22R
CHESTER        CLOUDY    48  48 100 CALM      30.22S FOG
GROTON         MOSUNNY   51  48  89 S3        30.22S
WILLIMANTIC    SUNNY     50  44  80 CALM      30.22S

 IN RI

CITY           SKY/WX    TMP DP  RH WIND       PRES   REMARKS
PROVIDENCE     MOSUNNY   52  48  86 S5        30.22S
BLOCK ISLAND   SUNNY     52  48  87 SW12      30.23R
WESTERLY       CLOUDY    50  49  96 S5        30.23S FOG

 IN MA

CITY           SKY/WX    TMP DP  RH WIND       PRES   REMARKS
BOSTON         MOSUNNY   56  46  69 SW9       30.19S
WORCESTER      SUNNY     62  40  44 W8        30.20R
WESTFIELD      SUNNY     52  45  77 CALM      30.20R
PROVINCETOWN   SUNNY     55  52  88 S14       30.22S
NANTUCKET      SUNNY     53  48  83 S12       30.25S
$$

ANZ330-335-338-340-345-350-353-355-041300-
COASTAL MARINE OBSERVATIONS


STATION/POSITION TIME  SKY/WX   TEMP    WIND        PRES    VSBY  WAVE
                                AIR SEA DIR/SP/G                  HT/PER
                 (UTC)          (F)     (DEG/KT/KT) (MB)    (MI)  (FT/S)
NY HARB ENTRANCE 1150            53 51  190/  6/  8 1022.9          3/ 9
4S FIRE IS       1103               49                N/A           3/ 9
20S FIRE ISLAND  1150            50 48  190/  8/  8 1023.5          3/ 8
GREAT SOUTH BAY  1100            54 57  250/  8/  8   N/A
23SW MTP         1150            49 45  190/ 10/ 10 1023.5          3/ 9
HUDSON CANYON    NOT AVBL
EXECUTION ROCKS  NOT AVBL
WESTERN LI SOUND NOT AVBL
CENTRAL LI SOUND NOT AVBL
EASTERN LI SOUND 1100            47     140/  2/  4   N/A
ROBBINS REEF     1100            54     170/  6/  6 1021.6
$$


>>>>>>>>>>>>>>>>>>>>>>>>>>>> KEY <<<<<<<<<<<<<<<<<<<<<<<<<<<
>                                                          <
>     SKY/WX - SKY CONDITION/PRESENT WEATHER               <
>     TMP    - TEMPERATURE IN FAHRENHEIT                   <
>     DP     - DEWPOINT IN FAHRENHEIT                      <
>     RH     - RELATIVE HUMIDITY IN PERCENT                <
>     WIND   - DIRECTION AND SPEED IN MPH                  <
>     PRES   - MEAN SEA LEVEL PRESSURE IN INCHES OF HG     <
>     WCI    - WIND CHILL INDEX                            <
>     VSB    - VISIBILITY IN MILES                         <
>     HX     - HEAT INDEX                                  <
>     TC     - TEMPERATURE IN CELSIUS                      <
>     VRB    - VARIABLE WIND DIRECTION                     <
>                                                          <
>>>>>>>>>>>>>>>>>>>>>>>>>>>> KEY <<<<<<<<<<<<<<<<<<<<<<<<<<<




USA.gov is the U.S. government's official web portal to all federal, state and local government web resources and services.